Terminal Aerodrome Forecast
Issued by NWS

Home | Current Version | Previous Version | Text Only | Print | Product List | Glossary On
Versions: 1 2 3 4 5 6 7 8 9 10 11 12 13 14 15 16 17 18 19 20 21 22 23 24 25 26 27 28 29 30 31 32 33 34 35
000
FTUS45 KSLC 301120
TAFBCE
TAF
KBCE 301120Z 3012/3112 29006KT P6SM FEW080 SCT120
     FM301800 31011KT P6SM SCT100 BKN140
     FM310300 31007KT P6SM SCT140=

USA.gov is the U.S. government's official web portal to all federal, state and local government web resources and services.